Time,TemperatureF,DewpointF,PressureIn,WindDirection,WindDirectionDegrees,WindSpeedMPH,WindSpeedGustMPH,Humidity,HourlyPrecipIn,Conditions,Clouds,dailyrainin,SolarRadiationWatts/m^2,SoftwareType,DateUTC
2013-02-01 00:12:00,28.5,11.0,29.69,West,267,11.0,-999.0,49,-99.99,,,0.57,0,weatherlink.com 1.10,2013-02-01 05:12:00,
2013-02-01 00:27:00,28.4,11.0,29.70,WSW,255,6.0,-999.0,48,-99.99,,,0.57,0,weatherlink.com 1.10,2013-02-01 05:27:00,
2013-02-01 00:42:00,28.3,11.0,29.70,NW,313,5.0,-999.0,48,-99.99,,,0.57,0,weatherlink.com 1.10,2013-02-01 05:42:00,
2013-02-01 00:57:00,28.3,10.0,29.70,West,281,10.0,-999.0,47,-99.99,,,0.57,0,weatherlink.com 1.10,2013-02-01 05:57:00,
2013-02-01 01:12:00,28.2,10.0,29.71,WNW,293,7.0,-999.0,47,-99.99,,,0.57,0,weatherlink.com 1.10,2013-02-01 06:12:00,
2013-02-01 01:27:00,28.0,10.0,29.72,SW,219,5.0,-999.0,48,-99.99,,,0.57,0,weatherlink.com 1.10,2013-02-01 06:27:00,
2013-02-01 01:42:00,27.9,11.0,29.72,West,280,4.0,-999.0,50,-99.99,,,0.57,0,weatherlink.com 1.10,2013-02-01 06:42:00,
2013-02-01 01:57:00,27.9,11.0,29.73,WSW,256,4.0,-999.0,50,-99.99,,,0.00,0,weatherlink.com 1.10,2013-02-01 06:57:00,
2013-02-01 02:12:00,28.0,12.0,29.73,West,264,9.0,-999.0,52,-99.99,,,0.00,0,weatherlink.com 1.10,2013-02-01 07:12:00,
2013-02-01 02:27:00,27.8,13.0,29.72,WNW,286,5.0,-999.0,53,-99.99,,,0.00,0,weatherlink.com 1.10,2013-02-01 07:27:00,
2013-02-01 02:42:00,27.7,13.0,29.73,WSW,256,2.0,-999.0,54,-99.99,,,0.00,0,weatherlink.com 1.10,2013-02-01 07:42:00,
2013-02-01 02:57:00,27.8,13.0,29.73,WSW,250,7.0,-999.0,54,-99.99,,,0.00,0,weatherlink.com 1.10,2013-02-01 07:57:00,
2013-02-01 03:12:00,27.7,13.0,29.73,West,259,6.0,-999.0,54,-99.99,,,0.00,0,weatherlink.com 1.10,2013-02-01 08:12:00,
2013-02-01 03:27:00,27.5,13.0,29.73,West,261,3.0,-999.0,55,-99.99,,,0.00,0,weatherlink.com 1.10,2013-02-01 08:27:00,
2013-02-01 03:42:00,27.2,13.0,29.73,West,269,10.0,-999.0,55,-99.99,,,0.00,0,weatherlink.com 1.10,2013-02-01 08:42:00,
2013-02-01 03:57:00,26.9,13.0,29.72,WSW,240,7.0,-999.0,57,-99.99,,,0.00,0,weatherlink.com 1.10,2013-02-01 08:57:00,
2013-02-01 04:12:00,26.6,13.0,29.71,WSW,247,3.0,-999.0,57,-99.99,,,0.00,0,weatherlink.com 1.10,2013-02-01 09:12:00,
2013-02-01 04:27:00,26.3,13.0,29.73,WSW,238,3.0,-999.0,58,-99.99,,,0.00,0,weatherlink.com 1.10,2013-02-01 09:27:00,
2013-02-01 04:42:00,26.3,14.0,29.73,SW,230,2.0,-999.0,59,-99.99,,,0.00,0,weatherlink.com 1.10,2013-02-01 09:42:00,
2013-02-01 04:57:00,26.1,13.0,29.73,SW,220,2.0,-999.0,59,-99.99,,,0.00,0,weatherlink.com 1.10,2013-02-01 09:57:00,
2013-02-01 05:27:00,25.3,14.0,29.75,West,276,2.0,-999.0,62,-99.99,,,0.00,0,weatherlink.com 1.10,2013-02-01 10:27:00,
2013-02-01 05:42:00,25.6,14.0,29.75,WSW,252,3.0,-999.0,62,-99.99,,,0.00,0,weatherlink.com 1.10,2013-02-01 10:42:00,
2013-02-01 05:57:00,25.8,14.0,29.76,WSW,247,3.0,-999.0,62,-99.99,,,0.00,0,weatherlink.com 1.10,2013-02-01 10:57:00,
2013-02-01 06:12:00,25.7,14.0,29.77,WSW,253,2.0,-999.0,62,-99.99,,,0.00,0,weatherlink.com 1.10,2013-02-01 11:12:00,
2013-02-01 06:27:00,25.5,14.0,29.77,WSW,251,1.0,-999.0,63,-99.99,,,0.00,0,weatherlink.com 1.10,2013-02-01 11:27:00,
2013-02-01 06:42:00,25.7,15.0,29.78,WSW,247,3.0,-999.0,63,-99.99,,,0.00,0,weatherlink.com 1.10,2013-02-01 11:42:00,
2013-02-01 06:57:00,25.8,15.0,29.79,South,185,5.0,-999.0,63,-99.99,,,0.00,0,weatherlink.com 1.10,2013-02-01 11:57:00,
2013-02-01 07:12:00,25.8,14.0,29.80,West,273,4.0,-999.0,62,-99.99,,,0.00,5,weatherlink.com 1.10,2013-02-01 12:12:00,
2013-02-01 07:27:00,26.1,14.0,29.80,West,278,7.0,-999.0,60,-99.99,,,0.00,14,weatherlink.com 1.10,2013-02-01 12:27:00,
2013-02-01 07:42:00,26.0,14.0,29.80,SW,226,3.0,-999.0,60,-99.99,,,0.00,26,weatherlink.com 1.10,2013-02-01 12:42:00,
2013-02-01 07:57:00,26.3,14.0,29.81,West,267,15.0,-999.0,59,-99.99,,,0.00,67,weatherlink.com 1.10,2013-02-01 12:57:00,
2013-02-01 08:12:00,26.8,14.0,29.82,West,259,1.0,-999.0,58,-99.99,,,0.00,111,weatherlink.com 1.10,2013-02-01 13:12:00,
2013-02-01 08:27:00,27.0,13.0,29.82,WNW,298,8.0,-999.0,56,-99.99,,,0.00,160,weatherlink.com 1.10,2013-02-01 13:27:00,
2013-02-01 08:42:00,27.7,14.0,29.82,WSW,247,3.0,-999.0,56,-99.99,,,0.00,211,weatherlink.com 1.10,2013-02-01 13:42:00,
2013-02-01 08:57:00,27.1,12.0,29.81,NW,313,3.0,-999.0,54,-99.99,,,0.00,93,weatherlink.com 1.10,2013-02-01 13:57:00,
2013-02-01 09:12:00,26.9,13.0,29.81,West,274,13.0,-999.0,56,-99.99,,,0.00,127,weatherlink.com 1.10,2013-02-01 14:12:00,
2013-02-01 09:27:00,27.1,13.0,29.82,West,271,2.0,-999.0,56,-99.99,,,0.00,169,weatherlink.com 1.10,2013-02-01 14:27:00,
2013-02-01 09:42:00,27.5,13.0,29.82,ENE,63,3.0,-999.0,55,-99.99,,,0.00,185,weatherlink.com 1.10,2013-02-01 14:42:00,
2013-02-01 09:57:00,27.6,13.0,29.83,West,277,4.0,-999.0,54,-99.99,,,0.00,327,weatherlink.com 1.10,2013-02-01 14:57:00,
2013-02-01 10:12:00,27.7,12.0,29.83,WNW,289,6.0,-999.0,51,-99.99,,,0.00,339,weatherlink.com 1.10,2013-02-01 15:12:00,
2013-02-01 10:27:00,27.9,11.0,29.83,NNW,343,3.0,-999.0,49,-99.99,,,0.00,176,weatherlink.com 1.10,2013-02-01 15:27:00,
2013-02-01 10:42:00,27.8,11.0,29.83,West,269,7.0,-999.0,49,-99.99,,,0.00,192,weatherlink.com 1.10,2013-02-01 15:42:00,
2013-02-01 10:57:00,27.8,10.0,29.84,NW,305,4.0,-999.0,47,-99.99,,,0.00,301,weatherlink.com 1.10,2013-02-01 15:57:00,
2013-02-01 11:12:00,28.7,10.0,29.84,West,276,3.0,-999.0,46,-99.99,,,0.00,285,weatherlink.com 1.10,2013-02-01 16:12:00,
2013-02-01 11:27:00,28.1,9.0,29.83,NW,307,6.0,-999.0,45,-99.99,,,0.00,176,weatherlink.com 1.10,2013-02-01 16:27:00,
2013-02-01 11:42:00,28.3,9.0,29.82,North,9,2.0,-999.0,45,-99.99,,,0.00,137,weatherlink.com 1.10,2013-02-01 16:42:00,
2013-02-01 11:57:00,28.3,9.0,29.82,NNW,338,3.0,-999.0,44,-99.99,,,0.00,383,weatherlink.com 1.10,2013-02-01 16:57:00,
2013-02-01 12:12:00,28.6,10.0,29.82,NNW,327,7.0,-999.0,45,-99.99,,,0.00,383,weatherlink.com 1.10,2013-02-01 17:12:00,
2013-02-01 12:27:00,28.8,9.0,29.82,NNW,332,7.0,-999.0,43,-99.99,,,0.00,216,weatherlink.com 1.10,2013-02-01 17:27:00,
2013-02-01 12:42:00,29.2,10.0,29.82,NE,36,3.0,-999.0,44,-99.99,,,0.00,281,weatherlink.com 1.10,2013-02-01 17:42:00,
2013-02-01 12:57:00,28.7,11.0,29.82,NNW,342,5.0,-999.0,47,-99.99,,,0.00,118,weatherlink.com 1.10,2013-02-01 17:57:00,
2013-02-01 13:12:00,28.2,10.0,29.82,WSW,252,6.0,-999.0,46,-99.99,,,0.00,111,weatherlink.com 1.10,2013-02-01 18:12:00,
2013-02-01 13:27:00,28.6,8.0,29.82,NW,324,1.0,-999.0,42,-99.99,,,0.00,190,weatherlink.com 1.10,2013-02-01 18:27:00,
2013-02-01 13:42:00,29.0,8.0,29.83,North,355,5.0,-999.0,41,-99.99,,,0.00,107,weatherlink.com 1.10,2013-02-01 18:42:00,
2013-02-01 13:57:00,29.2,7.0,29.84,NW,325,10.0,-999.0,39,-99.99,,,0.00,547,weatherlink.com 1.10,2013-02-01 18:57:00,
2013-02-01 14:12:00,29.2,8.0,29.84,WSW,244,8.0,-999.0,41,-99.99,,,0.00,190,weatherlink.com 1.10,2013-02-01 19:12:00,
2013-02-01 14:27:00,29.0,9.0,29.85,NNW,327,5.0,-999.0,43,-99.99,,,0.00,183,weatherlink.com 1.10,2013-02-01 19:27:00,
2013-02-01 14:42:00,29.0,7.0,29.86,NW,317,5.0,-999.0,40,-99.99,,,0.00,100,weatherlink.com 1.10,2013-02-01 19:42:00,
2013-02-01 14:57:00,29.0,7.0,29.87,NW,304,5.0,-999.0,40,-99.99,,,0.00,153,weatherlink.com 1.10,2013-02-01 19:57:00,
2013-02-01 15:12:00,28.7,8.0,29.88,West,266,7.0,-999.0,41,-99.99,,,0.00,105,weatherlink.com 1.10,2013-02-01 20:12:00,
2013-02-01 15:27:00,28.3,7.0,29.89,NW,319,8.0,-999.0,40,-99.99,,,0.00,93,weatherlink.com 1.10,2013-02-01 20:27:00,
2013-02-01 15:42:00,28.5,8.0,29.90,North,9,5.0,-999.0,42,-99.99,,,0.00,67,weatherlink.com 1.10,2013-02-01 20:42:00,
2013-02-01 15:57:00,27.7,10.0,29.91,West,266,8.0,-999.0,48,-99.99,,,0.00,54,weatherlink.com 1.10,2013-02-01 20:57:00,
2013-02-01 16:12:00,27.2,11.0,29.93,ENE,65,5.0,-999.0,50,-99.99,,,0.00,25,weatherlink.com 1.10,2013-02-01 21:12:00,
2013-02-01 16:27:00,27.0,10.0,29.94,WNW,289,7.0,-999.0,49,-99.99,,,0.00,40,weatherlink.com 1.10,2013-02-01 21:27:00,
2013-02-01 16:42:00,26.8,9.0,29.95,WNW,288,2.0,-999.0,47,-99.99,,,0.00,25,weatherlink.com 1.10,2013-02-01 21:42:00,
2013-02-01 16:57:00,26.6,8.0,29.96,NW,304,12.0,-999.0,46,-99.99,,,0.00,11,weatherlink.com 1.10,2013-02-01 21:57:00,
2013-02-01 17:12:00,26.3,5.0,29.97,NW,319,3.0,-999.0,41,-99.99,,,0.00,0,weatherlink.com 1.10,2013-02-01 22:12:00,
2013-02-01 17:42:00,25.8,6.0,30.00,NW,311,4.0,-999.0,43,-99.99,,,0.00,0,weatherlink.com 1.10,2013-02-01 22:42:00,
2013-02-01 17:57:00,25.9,6.0,30.01,NW,313,3.0,-999.0,43,-99.99,,,0.00,0,weatherlink.com 1.10,2013-02-01 22:57:00,
2013-02-01 18:12:00,25.6,7.0,30.03,North,350,5.0,-999.0,45,-99.99,,,0.00,0,weatherlink.com 1.10,2013-02-01 23:12:00,
2013-02-01 18:27:00,25.3,5.0,30.04,NW,326,4.0,-999.0,42,-99.99,,,0.00,0,weatherlink.com 1.10,2013-02-01 23:27:00,
2013-02-01 18:42:00,24.9,5.0,30.05,WNW,284,7.0,-999.0,43,-99.99,,,0.00,0,weatherlink.com 1.10,2013-02-01 23:42:00,
2013-02-01 18:57:00,24.7,6.0,30.06,West,281,3.0,-999.0,44,-99.99,,,0.00,0,weatherlink.com 1.10,2013-02-01 23:57:00,
2013-02-01 19:12:00,24.3,5.0,30.06,NW,315,5.0,-999.0,44,-99.99,,,0.00,0,weatherlink.com 1.10,2013-02-02 00:12:00,
2013-02-01 19:27:00,24.2,5.0,30.07,NNW,328,2.0,-999.0,43,-99.99,,,0.00,0,weatherlink.com 1.10,2013-02-02 00:27:00,
2013-02-01 19:42:00,24.1,5.0,30.07,NNE,19,0.0,-999.0,44,-99.99,,,0.00,0,weatherlink.com 1.10,2013-02-02 00:42:00,
2013-02-01 19:57:00,24.2,6.0,30.08,South,180,3.0,-999.0,45,-99.99,,,0.00,0,weatherlink.com 1.10,2013-02-02 00:57:00,
2013-02-01 20:12:00,24.0,6.0,30.09,NNW,347,4.0,-999.0,46,-99.99,,,0.00,0,weatherlink.com 1.10,2013-02-02 01:12:00,
2013-02-01 20:27:00,23.8,6.0,30.10,WNW,292,8.0,-999.0,47,-99.99,,,0.00,0,weatherlink.com 1.10,2013-02-02 01:27:00,
2013-02-01 20:42:00,23.6,6.0,30.10,North,349,3.0,-999.0,47,-99.99,,,0.00,0,weatherlink.com 1.10,2013-02-02 01:42:00,
2013-02-01 20:57:00,23.1,6.0,30.11,West,274,3.0,-999.0,48,-99.99,,,0.00,0,weatherlink.com 1.10,2013-02-02 01:57:00,
2013-02-01 21:12:00,23.3,7.0,30.11,WNW,293,2.0,-999.0,49,-99.99,,,0.00,0,weatherlink.com 1.10,2013-02-02 02:12:00,
2013-02-01 21:27:00,23.2,7.0,30.11,North,360,7.0,-999.0,50,-99.99,,,0.00,0,weatherlink.com 1.10,2013-02-02 02:27:00,
2013-02-01 21:42:00,23.0,7.0,30.12,West,279,1.0,-999.0,51,-99.99,,,0.00,0,weatherlink.com 1.10,2013-02-02 02:42:00,
2013-02-01 21:57:00,22.9,8.0,30.13,WNW,300,1.0,-999.0,53,-99.99,,,0.00,0,weatherlink.com 1.10,2013-02-02 02:57:00,
2013-02-01 22:12:00,22.8,8.0,30.13,West,275,6.0,-999.0,54,-99.99,,,0.00,0,weatherlink.com 1.10,2013-02-02 03:12:00,
2013-02-01 22:27:00,22.8,8.0,30.14,WSW,257,2.0,-999.0,54,-99.99,,,0.00,0,weatherlink.com 1.10,2013-02-02 03:27:00,
2013-02-01 22:42:00,22.5,8.0,30.14,West,265,1.0,-999.0,55,-99.99,,,0.00,0,weatherlink.com 1.10,2013-02-02 03:42:00,
2013-02-01 22:57:00,22.4,9.0,30.14,NW,307,6.0,-999.0,57,-99.99,,,0.00,0,weatherlink.com 1.10,2013-02-02 03:57:00,
2013-02-01 23:12:00,22.3,9.0,30.15,NNW,339,5.0,-999.0,58,-99.99,,,0.00,0,weatherlink.com 1.10,2013-02-02 04:12:00,
2013-02-01 23:27:00,22.1,10.0,30.16,WNW,284,0.0,-999.0,59,-99.99,,,0.00,0,weatherlink.com 1.10,2013-02-02 04:27:00,
2013-02-01 23:42:00,22.1,10.0,30.16,West,275,0.0,-999.0,59,-99.99,,,0.00,0,weatherlink.com 1.10,2013-02-02 04:42:00,
2013-02-01 23:57:00,21.9,10.0,30.16,WSW,249,7.0,-999.0,60,-99.99,,,0.00,0,weatherlink.com 1.10,2013-02-02 04:57:00,